EB2EMZ-15 Llodio ES current weather conditions

sailwx.info

Wind from 225 at 1 knots gusting 2

Air temperature 5.0° C
Dewpoint 4.9° C

Last reported at 2017-Dec-17 19:05 UTC.
Time now 2017-Dec-17 19:47 UTC

Location: N 43°09' W 002°58'.
View on Google Maps.

See reports from other nearby stations

  
Tides and Currents Weather Stations Pressure Air Temp Water Temp Dewpoint Dewpoint Depression Visibility Wind Speed Wind Dir Waves Ship Positions
date/time (UTC)wind fromknots sea level pressurealtimeterstation pressurevisibilityair tempwater tempwave heightnotes
2017-Dec-17 19:05 225 1 gusting 2 5.0
2017-Dec-17 19:00 225 1 gusting 4 5.0
2017-Dec-17 18:55 225 1 gusting 2 5.0
2017-Dec-17 18:50 270 2 gusting 4 5.0
2017-Dec-17 18:45 225 1 gusting 2 5.0
2017-Dec-17 18:40 225 1 gusting 2 5.6
2017-Dec-17 18:35 225 1 gusting 2 5.6
2017-Dec-17 18:30 225 0 gusting 4 5.6
2017-Dec-17 18:25 277 1 gusting 4 5.6
2017-Dec-17 18:20 243 2 gusting 4 5.6
2017-Dec-17 18:15 244 1 gusting 2 5.6
2017-Dec-17 18:10 270 0 gusting 1 6.1
2017-Dec-17 18:05 227 6.1
2017-Dec-17 18:00 225 1 gusting 2 6.1
2017-Dec-17 17:55 225 0 gusting 2 6.1
2017-Dec-17 17:50 270 1 gusting 2 6.1
2017-Dec-17 17:45 225 0 gusting 1 6.7
2017-Dec-17 17:40 270 6.7
2017-Dec-17 17:35 270 0 gusting 1 6.7
2017-Dec-17 17:30 231 0 gusting 0 6.7
2017-Dec-17 17:25 270 0 gusting 2 6.7
2017-Dec-17 17:20 247 1 gusting 2 6.7
2017-Dec-17 17:15 225 0 gusting 1 6.7
2017-Dec-17 17:10 257 0 gusting 1 6.7
2017-Dec-17 17:05 225 0 gusting 0 7.2
2017-Dec-17 17:00 269 0 gusting 2 7.2
2017-Dec-17 16:55 244 0 gusting 1 7.2
2017-Dec-17 16:50 295 1 gusting 2 7.2
2017-Dec-17 16:45 257 0 gusting 1 7.8
2017-Dec-17 16:40 225 0 gusting 2 7.8
2017-Dec-17 16:36 266 0 gusting 2 7.8
2017-Dec-17 16:25 240 0 gusting 1 7.8
2017-Dec-17 16:20 266 0 gusting 2 7.8
2017-Dec-17 16:15 232 0 gusting 2 7.8
2017-Dec-17 16:10 225 1 gusting 6 8.3
2017-Dec-17 16:05 225 0 gusting 2 8.3
2017-Dec-17 16:00 241 8.3
2017-Dec-17 15:55 225 8.3
2017-Dec-17 15:50 225 8.3
2017-Dec-17 15:45 180 8.9
2017-Dec-17 15:40 225 8.9
2017-Dec-17 15:35 234 8.9
2017-Dec-17 15:30 225 9.4
2017-Dec-17 15:25 180 9.4
2017-Dec-17 15:20 180 0 gusting 1 9.4
2017-Dec-17 15:15 180 9.4
2017-Dec-17 15:10 192 9.4
2017-Dec-17 15:05 180 0 gusting 2 9.4
2017-Dec-17 15:00 225 9.4
2017-Dec-17 14:55 288 9.4
2017-Dec-17 14:50 249 1 gusting 4 10.0
2017-Dec-17 14:45 234 2 gusting 4 10.6
2017-Dec-17 14:40 267 0 gusting 1 10.6
2017-Dec-17 14:35 133 11.1
2017-Dec-17 14:30 042 0 gusting 0 11.1
2017-Dec-17 14:25 049 11.1
2017-Dec-17 14:20 057 0 gusting 2 11.7
2017-Dec-17 14:15 063 0 gusting 1 11.1
2017-Dec-17 14:10 165 0 gusting 2 10.6
2017-Dec-17 14:05 225 10.0
2017-Dec-17 14:00 225 10.6
2017-Dec-17 13:55 167 10.6
2017-Dec-17 13:50 057 10.6
2017-Dec-17 13:45 108 10.6
2017-Dec-17 13:40 225 9.4
2017-Dec-17 13:35 225 9.4
2017-Dec-17 13:30 225 9.4
2017-Dec-17 13:25 225 9.4
2017-Dec-17 13:20 225 9.4
2017-Dec-17 13:15 225 8.9
2017-Dec-17 13:10 225 8.3
2017-Dec-17 13:05 090 7.8
2017-Dec-17 13:00 090 7.8
2017-Dec-17 12:55 060 0 gusting 0 7.8
2017-Dec-17 12:50 270 7.8
2017-Dec-17 12:45 208 7.8
2017-Dec-17 12:40 180 7.8
2017-Dec-17 12:35 270 7.2
2017-Dec-17 12:30 270 7.8
2017-Dec-17 12:25 225 7.2
2017-Dec-17 12:20 193 0 gusting 1 7.2
2017-Dec-17 12:15 225 7.2
2017-Dec-17 12:10 270 0 gusting 2 7.2
2017-Dec-17 12:05 243 0 gusting 1 7.2
2017-Dec-17 12:00 296 0 gusting 1 7.2
2017-Dec-17 11:55 304 7.2
2017-Dec-17 11:50 270 7.2
2017-Dec-17 11:45 180 7.2
2017-Dec-17 11:40 178 0 gusting 2 7.2
2017-Dec-17 11:35 180 1 gusting 1 7.8
2017-Dec-17 11:30 180 7.8
2017-Dec-17 11:25 225 7.8
2017-Dec-17 11:20 225 7.8
2017-Dec-17 11:15 225 7.8
2017-Dec-17 11:10 225 7.2
2017-Dec-17 11:05 135 7.2
2017-Dec-17 11:00 135 7.2
2017-Dec-17 10:55 180 7.2
2017-Dec-17 10:50 180 6.7
2017-Dec-17 10:45 180 6.7
2017-Dec-17 10:40 180 6.7
2017-Dec-17 10:35 136 0 gusting 1 7.2
2017-Dec-17 10:30 090 0 gusting 0 6.7
2017-Dec-17 10:25 090 0 gusting 0 7.2
2017-Dec-17 10:20 090 7.2
2017-Dec-17 10:15 090 7.2
2017-Dec-17 10:10 090 6.7
2017-Dec-17 10:05 090 6.7
2017-Dec-17 10:00 090 6.7
2017-Dec-17 09:55 090 6.7
2017-Dec-17 09:50 067 6.7
2017-Dec-17 09:45 045 6.7
2017-Dec-17 09:40 045 0 gusting 1 6.7
2017-Dec-17 09:35 143 6.1
2017-Dec-17 09:30 259 1 gusting 2 5.6
2017-Dec-17 09:25 225 5.0
2017-Dec-17 09:20 201 0 gusting 2 5.0
2017-Dec-17 09:15 259 0 gusting 2 4.4
2017-Dec-17 09:10 180 0 gusting 1 4.4
2017-Dec-17 09:05 225 0 gusting 1 3.9
2017-Dec-17 09:00 240 0 gusting 2 3.9
2017-Dec-17 08:55 225 0 gusting 2 3.9
2017-Dec-17 08:50 246 1 gusting 2 3.9
2017-Dec-17 08:45 270 0 gusting 1 3.3
2017-Dec-17 08:40 225 3.3
2017-Dec-17 08:35 225 3.3
2017-Dec-17 08:30 270 3.3
2017-Dec-17 08:25 270 3.9
2017-Dec-17 08:20 285 0 gusting 2 3.3
2017-Dec-17 08:15 233 3.3
2017-Dec-17 08:10 253 1 gusting 5 3.3
2017-Dec-17 08:05 270 1 gusting 2 3.3
2017-Dec-17 08:00 225 1 gusting 5 3.3
2017-Dec-17 07:55 282 1 gusting 5 3.3
2017-Dec-17 07:50 265 3.3
2017-Dec-17 07:45 225 0 gusting 4 3.3
2017-Dec-17 07:40 240 1 gusting 4 3.3
2017-Dec-17 07:35 225 0 gusting 2 3.3
2017-Dec-17 07:30 270 0 gusting 2 2.8
2017-Dec-17 07:25 206 0 gusting 4 2.8
2017-Dec-17 07:20 225 1 gusting 2 2.8
2017-Dec-17 07:15 231 1 gusting 4 2.8
2017-Dec-17 07:10 225 1 gusting 4 2.8
2017-Dec-17 07:05 225 0 gusting 1 2.8
2017-Dec-17 07:00 225 0 gusting 2 2.8
2017-Dec-17 06:55 270 0 gusting 2 2.8
2017-Dec-17 06:50 226 0 gusting 1 2.8
2017-Dec-17 06:45 010 2.8
2017-Dec-17 06:40 239 1 gusting 2 2.8
2017-Dec-17 06:35 244 1 gusting 4 2.8
2017-Dec-17 06:30 225 2 gusting 4 2.8
2017-Dec-17 06:25 225 1 gusting 2 2.8
2017-Dec-17 06:20 281 1 gusting 2 2.8
2017-Dec-17 06:15 225 0 gusting 2 2.8
2017-Dec-17 06:10 270 1 gusting 2 2.8
2017-Dec-17 06:05 225 0 gusting 1 2.8
2017-Dec-17 06:00 225 1 gusting 2 2.8
2017-Dec-17 05:55 225 1 gusting 4 2.8
2017-Dec-17 05:50 241 1 gusting 2 2.8
2017-Dec-17 05:45 225 1 gusting 2 3.3
2017-Dec-17 05:40 225 0 gusting 2 3.3
2017-Dec-17 05:35 225 0 gusting 0 3.3
2017-Dec-17 05:30 234 0 gusting 2 3.3
2017-Dec-17 05:25 267 0 gusting 2 3.3
2017-Dec-17 05:20 225 1 gusting 2 3.3
2017-Dec-17 05:15 286 2 gusting 2 3.3
2017-Dec-17 05:10 254 1 gusting 2 3.3
2017-Dec-17 05:05 270 0 gusting 2 3.3
2017-Dec-17 05:00 270 0 gusting 2 3.3
2017-Dec-17 04:55 270 0 gusting 1 3.3
2017-Dec-17 04:50 270 0 gusting 0 3.3
2017-Dec-17 04:45 225 3.9
2017-Dec-17 04:40 270 0 gusting 1 3.9
2017-Dec-17 04:35 238 0 gusting 1 3.9
2017-Dec-17 04:30 090 0 gusting 2 3.3
2017-Dec-17 04:25 251 1 gusting 2 3.3
2017-Dec-17 04:20 225 1 gusting 2 3.3
2017-Dec-17 04:15 225 1 gusting 2 3.3
2017-Dec-17 04:10 270 1 gusting 2 3.3
2017-Dec-17 04:05 291 0 gusting 1 3.3
2017-Dec-17 04:00 225 0 gusting 1 3.9
2017-Dec-17 03:55 270 0 gusting 2 3.9
2017-Dec-17 03:50 270 1 gusting 2 3.9
2017-Dec-17 03:45 270 0 gusting 1 3.9
2017-Dec-17 03:40 270 3.9
2017-Dec-17 03:35 268 2 gusting 4 3.9
2017-Dec-17 03:30 270 1 gusting 2 3.9
2017-Dec-17 03:25 225 1 gusting 2 3.9
2017-Dec-17 03:20 270 3.9
2017-Dec-17 03:15 270 0 gusting 0 4.4
2017-Dec-17 03:10 270 4.4
2017-Dec-17 03:05 225 4.4
2017-Dec-17 03:00 225 4.4
2017-Dec-17 02:55 253 4.4
2017-Dec-17 02:50 225 4.4
2017-Dec-17 02:45 225 4.4
2017-Dec-17 02:40 225 4.4
2017-Dec-17 02:35 225 4.4
2017-Dec-17 02:30 225 0 gusting 2 4.4
2017-Dec-17 02:25 270 1 gusting 2 4.4
2017-Dec-17 02:20 270 0 gusting 2 4.4
2017-Dec-17 02:15 229 0 gusting 2 4.4
2017-Dec-17 02:10 249 0 gusting 2 4.4
2017-Dec-17 02:05 225 0 gusting 0 4.4
2017-Dec-17 02:00 315 4.4
2017-Dec-17 01:55 351 0 gusting 0 4.4
2017-Dec-17 01:50 225 0 gusting 2 4.4
2017-Dec-17 01:45 225 1 gusting 4 4.4
2017-Dec-17 01:40 266 1 gusting 2 4.4
2017-Dec-17 01:35 238 0 gusting 2 4.4
2017-Dec-17 01:30 265 0 gusting 2 4.4
2017-Dec-17 01:25 238 4.4
2017-Dec-17 01:20 159 0 gusting 2 4.4
2017-Dec-17 01:15 225 2 gusting 5 4.4
2017-Dec-17 01:10 270 1 gusting 2 4.4
2017-Dec-17 01:05 270 0 gusting 2 4.4
2017-Dec-17 01:00 226 1 gusting 2 4.4
2017-Dec-17 00:55 243 0 gusting 4 4.4
2017-Dec-17 00:50 244 0 gusting 2 4.4
2017-Dec-17 00:45 180 2 gusting 4 4.4
2017-Dec-17 00:40 180 0 gusting 1 4.4
2017-Dec-17 00:35 270 4.4
2017-Dec-17 00:30 225 0 gusting 1 4.4
2017-Dec-17 00:25 251 1 gusting 2 5.0
2017-Dec-17 00:20 313 1 gusting 2 5.0
2017-Dec-17 00:15 270 5.0
2017-Dec-17 00:10 278 0 gusting 1 5.0
2017-Dec-17 00:05 242 0 gusting 0 5.0
2017-Dec-17 00:00 270 5.0
2017-Dec-16 23:55 270 0 gusting 1 5.0
2017-Dec-16 23:50 229 5.0
2017-Dec-16 23:45 225 0 gusting 2 5.0
2017-Dec-16 23:40 033 5.0
2017-Dec-16 23:35 191 1 gusting 5 5.0
2017-Dec-16 23:30 225 1 gusting 5 4.4
2017-Dec-16 23:25 270 0 gusting 1 4.4
2017-Dec-16 23:20 270 0 gusting 0 4.4
2017-Dec-16 23:15 266 0 gusting 2 4.4
2017-Dec-16 23:10 225 1 gusting 2 4.4
2017-Dec-16 23:05 270 0 gusting 0 5.0
2017-Dec-16 23:00 270 0 gusting 1 5.0
2017-Dec-16 22:55 270 0 gusting 2 5.0
2017-Dec-16 22:50 225 5.0
2017-Dec-16 22:45 270 5.0
2017-Dec-16 22:40 202 0 gusting 1 5.0
2017-Dec-16 22:35 201 0 gusting 4 5.0
2017-Dec-16 22:30 212 1 gusting 4 4.4
2017-Dec-16 22:25 051 0 gusting 4 4.4
2017-Dec-16 22:20 258 4.4
2017-Dec-16 22:15 225 1 gusting 2 4.4
2017-Dec-16 22:10 225 1 gusting 2 4.4
2017-Dec-16 22:05 225 1 gusting 4 4.4
2017-Dec-16 22:00 202 0 gusting 2 4.4
2017-Dec-16 21:55 225 4.4
2017-Dec-16 21:50 256 1 gusting 2 5.0
2017-Dec-16 21:45 045 0 gusting 2 5.0
2017-Dec-16 21:40 200 1 gusting 2 5.0
2017-Dec-16 21:35 200 0 gusting 4 5.0
2017-Dec-16 21:30 265 2 gusting 6 5.0
2017-Dec-16 21:25 315 2 gusting 5 4.4
2017-Dec-16 21:20 298 0 gusting 1 5.0
2017-Dec-16 21:15 280 0 gusting 1 5.0
2017-Dec-16 21:10 270 5.0
2017-Dec-16 21:05 270 5.0
2017-Dec-16 21:00 251 0 gusting 2 5.0
2017-Dec-16 20:55 270 5.0
2017-Dec-16 20:50 270 5.0
2017-Dec-16 20:45 225 5.6
2017-Dec-16 20:40 270 5.6
2017-Dec-16 20:35 270 5.6
2017-Dec-16 20:30 180 0 gusting 2 5.6
2017-Dec-16 20:25 225 5.6
2017-Dec-16 20:20 255 1 gusting 2 5.6
2017-Dec-16 20:15 250 5.0
2017-Dec-16 20:11 5.0
2017-Dec-16 20:05 017 0 gusting 1 5.0
2017-Dec-16 20:00 203 5.0
2017-Dec-16 19:55 238 2 gusting 5 5.0
2017-Dec-16 19:50 270 5.0
2017-Dec-16 19:45 263 0 gusting 4 5.0
2017-Dec-16 19:40 180 1 gusting 4 5.0
2017-Dec-16 19:35 291 5.0
2017-Dec-16 19:30 225 0 gusting 2 5.0
2017-Dec-16 19:25 225 1 gusting 2 5.0
2017-Dec-16 19:20 270 5.0
2017-Dec-16 19:15 270 1 gusting 2 5.0
2017-Dec-16 19:10 248 1 gusting 2 5.0
2017-Dec-16 19:05 225 5.6
2017-Dec-16 19:00 225 0 gusting 1 5.6
2017-Dec-16 18:55 220 0 gusting 1 5.6
2017-Dec-16 18:50 234 0 gusting 1 5.6
2017-Dec-16 18:45 247 0 gusting 2 5.6
2017-Dec-16 18:40 225 1 gusting 2 5.6
2017-Dec-16 18:35 315 5.6
2017-Dec-16 18:30 225 5.6
2017-Dec-16 18:25 233 6.1
2017-Dec-16 18:20 246 0 gusting 2 6.1
2017-Dec-16 18:15 234 0 gusting 2 6.1
2017-Dec-16 18:10 315 6.1
2017-Dec-16 18:05 225 0 gusting 2 6.1
2017-Dec-16 18:00 045 6.1
2017-Dec-16 17:55 249 0 gusting 2 6.1
2017-Dec-16 17:50 259 0 gusting 1 6.1
2017-Dec-16 17:45 261 0 gusting 0 6.1
2017-Dec-16 17:40 250 0 gusting 2 6.1
2017-Dec-16 17:35 254 1 gusting 2 6.1
2017-Dec-16 17:30 286 0 gusting 1 6.1
2017-Dec-16 17:25 270 0 gusting 1 6.1
2017-Dec-16 17:20 225 1 gusting 2 6.1
2017-Dec-16 17:15 301 0 gusting 1 6.1
2017-Dec-16 17:10 225 6.1
2017-Dec-16 17:05 270 0 gusting 1 6.1
2017-Dec-16 17:00 233 0 gusting 1 6.1
2017-Dec-16 16:55 270 6.1
2017-Dec-16 16:50 232 0 gusting 2 6.7
2017-Dec-16 16:45 225 1 gusting 5 6.7
2017-Dec-16 16:40 181 4 gusting 5 6.7
2017-Dec-16 16:35 189 1 gusting 2 6.7
2017-Dec-16 16:30 039 6.7
2017-Dec-16 16:25 146 6.7
2017-Dec-16 16:20 204 1 gusting 2 6.7
2017-Dec-16 16:15 225 6.7
2017-Dec-16 16:10 308 1 gusting 2 6.7
2017-Dec-16 16:05 315 6.7
2017-Dec-16 16:00 232 6.7
2017-Dec-16 15:55 269 6.7
2017-Dec-16 15:50 225 0 gusting 1 6.7
2017-Dec-16 15:45 187 6.7
2017-Dec-16 15:40 303 0 gusting 1 6.7
2017-Dec-16 15:35 270 1 gusting 2 7.2
2017-Dec-16 15:30 270 7.2
2017-Dec-16 15:25 225 7.2
2017-Dec-16 15:20 281 0 gusting 1 7.2
2017-Dec-16 15:15 225 0 gusting 1 7.2
2017-Dec-16 15:10 7.2
2017-Dec-16 15:05 6.7
2017-Dec-16 15:00 026 0 gusting 2 6.7
2017-Dec-16 14:55 180 6.7
2017-Dec-16 14:50 225 0 gusting 2 6.7
2017-Dec-16 14:45 259 0 gusting 2 6.7
2017-Dec-16 14:40 289 1 gusting 5 6.7
2017-Dec-16 14:35 277 3 gusting 5 6.7
2017-Dec-16 14:30 225 2 gusting 6 6.7
2017-Dec-16 14:25 295 2 gusting 5 6.7
2017-Dec-16 14:20 239 0 gusting 2 6.7
2017-Dec-16 14:15 225 0 gusting 4 6.7
2017-Dec-16 14:10 143 0 gusting 1 7.2
2017-Dec-16 14:05 225 0 gusting 1 7.2
2017-Dec-16 14:00 229 0 gusting 5 6.7
2017-Dec-16 13:55 277 2 gusting 5 7.2
2017-Dec-16 13:50 290 1 gusting 5 6.7
2017-Dec-16 13:45 237 0 gusting 4 6.7
2017-Dec-16 13:40 225 2 gusting 5 6.7
2017-Dec-16 13:35 204 1 gusting 4 6.7
2017-Dec-16 13:30 232 2 gusting 4 6.7
2017-Dec-16 13:25 180 0 gusting 2 6.7
2017-Dec-16 13:20 182 1 gusting 2 6.7
2017-Dec-16 13:15 259 0 gusting 2 6.7
2017-Dec-16 13:10 186 7.2
2017-Dec-16 13:05 180 7.2
2017-Dec-16 13:00 180 0 gusting 2 7.2
2017-Dec-16 12:55 247 1 gusting 2 7.2
2017-Dec-16 12:50 225 1 gusting 2 7.2
2017-Dec-16 12:45 193 0 gusting 6 6.7
2017-Dec-16 12:40 190 3 gusting 7 7.2
2017-Dec-16 12:35 189 2 gusting 5 7.2
2017-Dec-16 12:30 268 1 gusting 5 7.2
2017-Dec-16 12:25 220 7.2
2017-Dec-16 12:20 184 1 gusting 4 6.7
2017-Dec-16 12:15 221 1 gusting 6 6.7
2017-Dec-16 12:10 225 2 gusting 6 7.2
2017-Dec-16 12:05 225 1 gusting 2 7.2
2017-Dec-16 12:00 236 0 gusting 5 6.1
2017-Dec-16 11:55 225 2 gusting 5 6.7
2017-Dec-16 11:50 282 0 gusting 1 6.7
2017-Dec-16 11:45 315 1 gusting 5 6.1
2017-Dec-16 11:40 155 0 gusting 2 6.7
2017-Dec-16 11:35 311 0 gusting 2 6.7
2017-Dec-16 11:30 6.7
2017-Dec-16 11:25 236 0 gusting 1 7.2
2017-Dec-16 11:20 225 6.7
2017-Dec-16 11:15 225 6.7
2017-Dec-16 11:10 233 6.1
2017-Dec-16 11:05 270 6.1
2017-Dec-16 11:00 270 6.1
2017-Dec-16 10:55 6.1
2017-Dec-16 10:50 270 6.1
2017-Dec-16 10:45 270 1 gusting 2 6.1
2017-Dec-16 10:40 181 6.1
2017-Dec-16 10:35 180 6.1
2017-Dec-16 10:30 168 0 gusting 2 6.1
2017-Dec-16 10:25 270 0 gusting 1 6.1
2017-Dec-16 10:20 270 0 gusting 1 6.1
2017-Dec-16 10:15 315 6.1
2017-Dec-16 10:10 315 0 gusting 0 6.1
2017-Dec-16 10:05 270 6.1
2017-Dec-16 10:00 250 6.1
2017-Dec-16 09:55 225 6.1
2017-Dec-16 09:50 225 0 gusting 0 6.1
2017-Dec-16 09:45 5.6
2017-Dec-16 09:40 5.6
2017-Dec-16 09:35 315 5.6
2017-Dec-16 09:30 315 5.6
2017-Dec-16 09:25 073 0 gusting 5 5.6
2017-Dec-16 09:20 229 1 gusting 5 5.6
2017-Dec-16 09:15 180 2 gusting 6 5.6
2017-Dec-16 09:10 225 3 gusting 6 5.6
2017-Dec-16 09:05 270 5.6
2017-Dec-16 09:00 265 0 gusting 5 5.6
2017-Dec-16 08:55 284 1 gusting 2 5.6
2017-Dec-16 08:50 268 1 gusting 2 5.6
2017-Dec-16 08:45 270 0 gusting 2 5.6
2017-Dec-16 08:40 255 1 gusting 4 5.6
2017-Dec-16 08:35 225 2 gusting 6 5.6
2017-Dec-16 08:30 202 1 gusting 2 5.6
2017-Dec-16 08:25 146 5.6
2017-Dec-16 08:20 045 1 gusting 2 5.6
2017-Dec-16 08:15 5.6
2017-Dec-16 08:10 058 0 gusting 2 5.6
2017-Dec-16 08:05 215 1 gusting 4 5.6
2017-Dec-16 08:00 153 0 gusting 2 5.6
2017-Dec-16 07:55 213 1 gusting 2 5.0
2017-Dec-16 07:50 180 1 gusting 4 5.0
2017-Dec-16 07:45 270 0 gusting 4 5.0
2017-Dec-16 07:40 225 1 gusting 2 5.0
2017-Dec-16 07:35 245 0 gusting 2 5.0
2017-Dec-16 07:30 220 5.0
2017-Dec-16 07:25 225 5.6
2017-Dec-16 07:20 225 0 gusting 2 5.6
2017-Dec-16 07:15 253 0 gusting 2 5.6
2017-Dec-16 07:10 264 0 gusting 1 5.6
2017-Dec-16 07:05 270 0 gusting 1 5.6
2017-Dec-16 07:00 270 1 gusting 2 5.6
2017-Dec-16 06:55 281 0 gusting 2 5.0
2017-Dec-16 06:50 315 5.0
2017-Dec-16 06:45 315 5.0
2017-Dec-16 06:40 5.0
2017-Dec-16 06:35 270 0 gusting 1 5.0
2017-Dec-16 06:30 315 0 gusting 1 5.0
2017-Dec-16 06:25 281 5.0
2017-Dec-16 06:20 225 0 gusting 5 5.0
2017-Dec-16 06:15 220 2 gusting 5 5.0
2017-Dec-16 06:10 210 2 gusting 4 5.0
2017-Dec-16 06:05 313 5.0
2017-Dec-16 06:00 298 1 gusting 5 5.0
2017-Dec-16 05:55 225 1 gusting 4 4.4
2017-Dec-16 05:50 315 0 gusting 1 4.4
2017-Dec-16 05:45 225 0 gusting 1 4.4
2017-Dec-16 05:40 270 0 gusting 2 4.4
2017-Dec-16 05:35 226 4.4
2017-Dec-16 05:30 225 4.4
2017-Dec-16 05:25 180 0 gusting 4 4.4
2017-Dec-16 05:20 228 2 gusting 6 4.4
2017-Dec-16 05:15 258 4 gusting 6 4.4
2017-Dec-16 05:10 274 2 gusting 5 5.0
2017-Dec-16 05:05 225 0 gusting 1 5.0
2017-Dec-16 05:00 225 0 gusting 1 5.0
2017-Dec-16 04:55 270 5.0
2017-Dec-16 04:50 315 5.0
2017-Dec-16 04:45 218 5.6
2017-Dec-16 04:40 225 5.6
2017-Dec-16 04:35 270 0 gusting 2 5.6
2017-Dec-16 04:30 250 1 gusting 2 5.6
2017-Dec-16 04:25 244 0 gusting 0 5.6
2017-Dec-16 04:20 270 5.6
2017-Dec-16 04:15 315 5.6
2017-Dec-16 04:10 197 1 gusting 5 5.6
2017-Dec-16 04:05 180 2 gusting 7 5.6
2017-Dec-16 04:00 193 6 gusting 7 5.6
2017-Dec-16 03:55 180 5 gusting 7 5.6
2017-Dec-16 03:50 184 1 gusting 2 5.6
2017-Dec-16 03:45 290 1 gusting 2 5.6
2017-Dec-16 03:40 225 5.6
2017-Dec-16 03:35 357 5.6
2017-Dec-16 03:30 358 0 gusting 2 5.0
2017-Dec-16 03:25 274 0 gusting 2 5.0
2017-Dec-16 03:20 225 0 gusting 2 5.0
2017-Dec-16 03:15 270 5.0
2017-Dec-16 03:10 250 0 gusting 2 5.0
2017-Dec-16 03:05 270 0 gusting 2 5.6
2017-Dec-16 03:00 270 0 gusting 2 5.6
2017-Dec-16 02:55 274 5.6
2017-Dec-16 02:50 315 5.6
2017-Dec-16 02:45 315 5.6
2017-Dec-16 02:40 201 5.6
2017-Dec-16 02:35 226 5.6
2017-Dec-16 02:30 253 0 gusting 1 5.6
2017-Dec-16 02:25 5.6
2017-Dec-16 02:20 259 1 gusting 4 5.6
2017-Dec-16 02:15 270 5.0
2017-Dec-16 02:10 274 0 gusting 2 5.0
2017-Dec-16 02:05 270 1 gusting 2 5.0
2017-Dec-16 02:00 225 0 gusting 1 5.0
2017-Dec-16 01:55 270 0 gusting 2 5.0
2017-Dec-16 01:50 261 1 gusting 2 5.0
2017-Dec-16 01:45 270 1 gusting 2 5.0
2017-Dec-16 01:40 5.6
2017-Dec-16 01:35 225 5.6
2017-Dec-16 01:30 270 0 gusting 1 5.6
2017-Dec-16 01:25 286 5.6
2017-Dec-16 01:20 270 0 gusting 1 5.6
2017-Dec-16 01:15 180 0 gusting 1 5.6
2017-Dec-16 01:10 259 1 gusting 4 5.0
2017-Dec-16 01:05 270 1 gusting 4 5.0
2017-Dec-16 01:00 283 2 gusting 5 5.0
2017-Dec-16 00:55 225 1 gusting 4 5.0
2017-Dec-16 00:50 270 0 gusting 1 5.0
2017-Dec-16 00:45 266 5.0
2017-Dec-16 00:40 303 0 gusting 2 5.0
2017-Dec-16 00:35 276 5.0
2017-Dec-16 00:30 270 5.6
2017-Dec-16 00:25 270 5.6
2017-Dec-16 00:20 281 0 gusting 2 5.6
2017-Dec-16 00:15 225 1 gusting 2 5.0
2017-Dec-16 00:10 212 0 gusting 5 5.0
2017-Dec-16 00:05 257 2 gusting 5 5.0
2017-Dec-16 00:00 236 2 gusting 5 5.0
2017-Dec-15 23:55 226 1 gusting 2 5.0
2017-Dec-15 23:50 270 5.0
2017-Dec-15 23:45 282 5.0
2017-Dec-15 23:40 203 5.0
2017-Dec-15 23:35 295 5.0
2017-Dec-15 23:30 270 5.6
2017-Dec-15 23:25 225 5.6
2017-Dec-15 23:20 303 0 gusting 2 5.6
2017-Dec-15 23:15 270 1 gusting 2 5.6
2017-Dec-15 23:10 330 5.6
2017-Dec-15 23:05 225 0 gusting 2 5.6
2017-Dec-15 23:00 225 0 gusting 4 5.6
2017-Dec-15 22:55 225 1 gusting 2 5.6
2017-Dec-15 22:50 205 5.6
2017-Dec-15 22:45 193 0 gusting 2 5.6
2017-Dec-15 22:40 182 0 gusting 2 5.6
2017-Dec-15 22:35 270 5.6
2017-Dec-15 22:30 270 5.6
2017-Dec-15 22:25 270 5.6
2017-Dec-15 22:20 263 5.6
2017-Dec-15 22:15 270 0 gusting 1 5.6
2017-Dec-15 22:10 256 0 gusting 1 5.6
2017-Dec-15 22:05 255 5.6
2017-Dec-15 22:00 259 0 gusting 4 5.6
2017-Dec-15 21:55 225 1 gusting 2 5.6
2017-Dec-15 21:50 225 1 gusting 2 5.6
2017-Dec-15 21:45 270 1 gusting 4 5.6
2017-Dec-15 21:40 260 1 gusting 4 5.6
2017-Dec-15 21:35 285 1 gusting 2 5.6
2017-Dec-15 21:30 225 1 gusting 2 5.6
2017-Dec-15 21:25 270 1 gusting 2 5.6
2017-Dec-15 21:20 225 0 gusting 1 5.6
2017-Dec-15 21:15 270 0 gusting 1 5.6
2017-Dec-15 21:10 270 5.6
2017-Dec-15 21:05 270 5.6
2017-Dec-15 21:00 270 5.6
2017-Dec-15 20:55 270 5.6
2017-Dec-15 20:50 270 5.6
2017-Dec-15 20:45 270 0 gusting 1 5.6
2017-Dec-15 20:40 228 0 gusting 2 5.6
2017-Dec-15 20:35 270 5.6
2017-Dec-15 20:30 245 1 gusting 2 5.6
2017-Dec-15 20:25 246 0 gusting 4 5.6
2017-Dec-15 20:20 248 3 gusting 6 6.1
2017-Dec-15 20:15 251 3 gusting 5 5.6
2017-Dec-15 20:10 190 2 gusting 6 5.6
2017-Dec-15 20:05 270 3 gusting 6 6.1
2017-Dec-15 20:00 268 2 gusting 5 6.1
2017-Dec-15 19:55 228 1 gusting 5 6.1
2017-Dec-15 19:50 225 2 gusting 6 6.1
2017-Dec-15 19:45 243 2 gusting 5 6.1
2017-Dec-15 19:40 241 2 gusting 6 6.1
2017-Dec-15 19:35 302 4 gusting 8 6.1
2017-Dec-15 19:30 189 5 gusting 6 6.1
2017-Dec-15 19:25 200 2 gusting 5 6.1
2017-Dec-15 19:20 192 4 gusting 6 6.1
2017-Dec-15 19:15 205 2 gusting 6 6.1
2017-Dec-15 19:10 214 2 gusting 5 6.1
2017-Dec-15 19:05 270 0 gusting 2 6.1
2017-Dec-15 19:00 197 2 gusting 6 6.1